This is the latest recevied weather packets stored in our database for station/object KQ4KX. If no packets are shown the sender has not sent any weather packets the latest 10 day(s).
| Time | Temp. | Humidity | Pressure | Rain* | Wind** | Luminosity | Snow |
|---|---|---|---|---|---|---|---|
| 1777993053 | 27.22° C | 65% | 1016.7 hPa | 0 mm | - | - | - |
| 1777992724 | 26.67° C | 65% | 1016.7 hPa | 0 mm | - | - | - |
| 1777992394 | 26.67° C | 69% | 1016.8 hPa | 0 mm | - | - | - |
| 1777991463 | 26.67° C | 69% | 1016.5 hPa | 0 mm | - | - | - |
| 1777991133 | 26.67° C | 71% | 1016.5 hPa | 0 mm | - | - | - |
| 1777990833 | 26.67° C | 72% | 1016.4 hPa | 0 mm | - | - | - |
| 1777989843 | 25.56° C | 75% | 1016.1 hPa | 0 mm | - | - | - |
| 1777989213 | 25° C | 75% | 1016.3 hPa | 0 mm | - | - | - |
| 1777988883 | 25° C | 76% | 1016.3 hPa | 0 mm | - | - | - |
| 1777988553 | 25° C | 77% | 1016.3 hPa | 0 mm | - | - | - |
| 1777988253 | 24.44° C | 78% | 1016.4 hPa | 0 mm | - | - | - |
| 1777987953 | 24.44° C | 78% | 1016.3 hPa | 0 mm | - | - | - |
| 1777987653 | 24.44° C | 78% | 1016.2 hPa | 0 mm | - | - | - |
| 1777987353 | 24.44° C | 79% | 1016.2 hPa | 0 mm | - | - | - |
| 1777987023 | 24.44° C | 79% | 1016.2 hPa | 0 mm | - | - | - |
| 1777986723 | 24.44° C | 80% | 1016.2 hPa | 0 mm | - | - | - |
| 1777986423 | 23.89° C | 80% | 1016.2 hPa | 0 mm | - | - | - |
| 1777986123 | 23.89° C | 81% | 1016.2 hPa | 0 mm | - | - | - |
| 1777985793 | 23.89° C | 81% | 1016.1 hPa | 0 mm | - | - | - |
| 1777985494 | 23.33° C | 83% | 1016.2 hPa | 0 mm | - | - | - |
| 1777984863 | 22.78° C | 85% | 1016.3 hPa | 0 mm | - | - | - |
| 1777984533 | 22.22° C | 86% | 1016.3 hPa | 0 mm | - | - | - |
| 1777984233 | 22.22° C | 86% | 1016.3 hPa | 0 mm | - | - | - |
| 1777983273 | 21.67° C | 88% | 1016.3 hPa | 0 mm | - | - | - |
| 1777982973 | 21.67° C | 89% | 1016.3 hPa | 0 mm | - | - | - |
* Rain latest hour (hover to see other rain measurements)
** Current wind speed in m/s (hover to see current wind gust speed)